Time,TemperatureF,DewpointF,PressureIn,WindDirection,WindDirectionDegrees,WindSpeedMPH,WindSpeedGustMPH,Humidity,HourlyPrecipIn,Conditions,Clouds,dailyrainin,SoftwareType,DateUTC
2013-01-07 00:07:00,37.3,36.0,30.22,SSW,196,0.0,0.0,96,0.00,,,0.00,weatherlink.com 1.10,2013-01-07 08:07:00,
2013-01-07 00:22:00,37.4,36.0,30.22,SSW,196,0.0,0.0,96,0.00,,,0.00,weatherlink.com 1.10,2013-01-07 08:22:00,
2013-01-07 00:37:00,37.5,37.0,30.22,SSW,196,0.0,0.0,96,0.00,,,0.00,weatherlink.com 1.10,2013-01-07 08:37:00,
2013-01-07 00:52:00,37.5,37.0,30.21,SSW,196,0.0,0.0,96,0.00,,,0.00,weatherlink.com 1.10,2013-01-07 08:52:00,
2013-01-07 01:07:00,37.4,36.0,30.21,SSW,196,0.0,0.0,96,0.00,,,0.00,weatherlink.com 1.10,2013-01-07 09:07:00,
2013-01-07 01:22:00,37.8,37.0,30.21,SSW,196,0.0,0.0,96,0.00,,,0.00,weatherlink.com 1.10,2013-01-07 09:22:00,
2013-01-07 01:37:00,37.6,37.0,30.21,SSW,196,0.0,1.0,96,0.00,,,0.00,weatherlink.com 1.10,2013-01-07 09:37:00,
2013-01-07 01:52:00,37.5,37.0,30.21,SSW,196,0.0,0.0,96,0.00,,,0.00,weatherlink.com 1.10,2013-01-07 09:52:00,
2013-01-07 02:07:00,37.2,36.0,30.22,SSW,196,0.0,0.0,96,0.00,,,0.00,weatherlink.com 1.10,2013-01-07 10:07:00,
2013-01-07 02:23:00,37.0,36.0,30.25,ESE,119,0.0,3.0,96,0.00,,,0.00,weatherlink.com 1.10,2013-01-07 10:23:00,
2013-01-07 02:38:00,36.8,36.0,30.24,ESE,119,0.0,0.0,96,0.00,,,0.00,weatherlink.com 1.10,2013-01-07 10:38:00,
2013-01-07 02:53:00,37.3,36.0,30.24,ESE,119,0.0,0.0,96,0.00,,,0.00,weatherlink.com 1.10,2013-01-07 10:53:00,
2013-01-07 03:08:00,37.6,37.0,30.23,ESE,119,0.0,0.0,97,0.00,,,0.00,weatherlink.com 1.10,2013-01-07 11:08:00,
2013-01-07 03:23:00,37.8,37.0,30.23,ESE,119,0.0,0.0,97,0.00,,,0.00,weatherlink.com 1.10,2013-01-07 11:23:00,
2013-01-07 03:38:00,37.7,37.0,30.22,ESE,119,0.0,1.0,97,0.00,,,0.00,weatherlink.com 1.10,2013-01-07 11:38:00,
2013-01-07 03:53:00,38.0,37.0,30.22,ESE,119,0.0,0.0,96,0.00,,,0.00,weatherlink.com 1.10,2013-01-07 11:53:00,
2013-01-07 04:08:00,37.3,36.0,30.24,ESE,119,0.0,0.0,96,0.00,,,0.00,weatherlink.com 1.10,2013-01-07 12:08:00,
2013-01-07 04:23:00,37.1,36.0,30.23,ESE,119,0.0,0.0,96,0.00,,,0.00,weatherlink.com 1.10,2013-01-07 12:23:00,
2013-01-07 04:38:00,37.0,36.0,30.22,ESE,119,0.0,0.0,97,0.00,,,0.00,weatherlink.com 1.10,2013-01-07 12:38:00,
2013-01-07 04:53:00,36.8,36.0,30.21,ESE,119,0.0,0.0,96,0.00,,,0.00,weatherlink.com 1.10,2013-01-07 12:53:00,
2013-01-07 05:08:00,36.9,36.0,30.21,ESE,119,0.0,0.0,97,0.00,,,0.00,weatherlink.com 1.10,2013-01-07 13:08:00,
2013-01-07 05:23:00,36.9,36.0,30.21,ESE,119,0.0,0.0,97,0.00,,,0.00,weatherlink.com 1.10,2013-01-07 13:23:00,
2013-01-07 05:38:00,37.2,37.0,30.21,ESE,119,0.0,0.0,97,0.00,,,0.00,weatherlink.com 1.10,2013-01-07 13:38:00,
2013-01-07 05:53:00,37.9,37.0,30.22,ESE,119,0.0,1.0,97,0.00,,,0.00,weatherlink.com 1.10,2013-01-07 13:53:00,
2013-01-07 06:08:00,37.7,37.0,30.23,ESE,119,0.0,2.0,97,0.00,,,0.00,weatherlink.com 1.10,2013-01-07 14:08:00,
2013-01-07 06:23:00,37.7,37.0,30.22,ESE,119,0.0,0.0,97,0.00,,,0.00,weatherlink.com 1.10,2013-01-07 14:23:00,
2013-01-07 06:38:00,37.7,37.0,30.22,ESE,119,0.0,0.0,97,0.00,,,0.00,weatherlink.com 1.10,2013-01-07 14:38:00,
2013-01-07 06:53:00,37.6,37.0,30.23,ESE,119,0.0,0.0,97,0.00,,,0.00,weatherlink.com 1.10,2013-01-07 14:53:00,
2013-01-07 07:08:00,37.4,37.0,30.23,ESE,119,0.0,0.0,97,0.00,,,0.00,weatherlink.com 1.10,2013-01-07 15:08:00,
2013-01-07 07:23:00,37.6,37.0,30.23,ESE,119,0.0,0.0,97,0.00,,,0.00,weatherlink.com 1.10,2013-01-07 15:23:00,
2013-01-07 07:38:00,38.1,37.0,30.23,ESE,119,0.0,0.0,97,0.00,,,0.00,weatherlink.com 1.10,2013-01-07 15:38:00,
2013-01-07 07:53:00,39.0,38.0,30.22,ESE,119,0.0,1.0,97,0.00,,,0.00,weatherlink.com 1.10,2013-01-07 15:53:00,
2013-01-07 08:08:00,39.4,39.0,30.23,ESE,119,0.0,0.0,97,0.00,,,0.00,weatherlink.com 1.10,2013-01-07 16:08:00,
2013-01-07 08:23:00,39.4,39.0,30.26,ESE,119,0.0,0.0,97,0.00,,,0.00,weatherlink.com 1.10,2013-01-07 16:23:00,
2013-01-07 08:38:00,39.6,39.0,30.27,ESE,119,0.0,0.0,97,0.00,,,0.00,weatherlink.com 1.10,2013-01-07 16:38:00,
2013-01-07 08:53:00,40.4,40.0,30.27,ESE,119,0.0,0.0,97,0.00,,,0.00,weatherlink.com 1.10,2013-01-07 16:53:00,
2013-01-07 09:08:00,41.2,40.0,30.27,ESE,119,0.0,0.0,97,0.00,,,0.00,weatherlink.com 1.10,2013-01-07 17:08:00,
2013-01-07 09:23:00,42.4,42.0,30.27,ESE,119,0.0,0.0,97,0.00,,,0.00,weatherlink.com 1.10,2013-01-07 17:23:00,
2013-01-07 09:38:00,43.4,43.0,30.27,ESE,119,0.0,0.0,97,0.00,,,0.00,weatherlink.com 1.10,2013-01-07 17:38:00,
2013-01-07 09:53:00,44.0,43.0,30.28,ESE,119,0.0,0.0,97,0.00,,,0.00,weatherlink.com 1.10,2013-01-07 17:53:00,
2013-01-07 10:08:00,44.0,43.0,30.28,ESE,119,0.0,0.0,97,0.00,,,0.00,weatherlink.com 1.10,2013-01-07 18:08:00,
2013-01-07 10:23:00,44.2,43.0,30.28,ESE,119,0.0,2.0,97,0.00,,,0.00,weatherlink.com 1.10,2013-01-07 18:23:00,
2013-01-07 10:38:00,44.8,44.0,30.28,ESE,120,0.0,3.0,97,0.00,,,0.00,weatherlink.com 1.10,2013-01-07 18:38:00,
2013-01-07 10:53:00,45.7,45.0,30.27,South,174,0.0,2.0,97,0.00,,,0.00,weatherlink.com 1.10,2013-01-07 18:53:00,
2013-01-07 11:08:00,45.9,45.0,30.27,ESE,117,0.0,2.0,97,0.00,,,0.00,weatherlink.com 1.10,2013-01-07 19:08:00,
2013-01-07 11:23:00,46.4,46.0,30.26,SSE,153,0.0,3.0,97,0.00,,,0.00,weatherlink.com 1.10,2013-01-07 19:23:00,
2013-01-07 11:39:00,47.9,47.0,30.27,SSW,202,0.0,3.0,97,0.00,,,0.00,weatherlink.com 1.10,2013-01-07 19:39:00,
2013-01-07 11:54:00,49.0,48.0,30.26,ESE,120,0.0,2.0,97,0.00,,,0.00,weatherlink.com 1.10,2013-01-07 19:54:00,
2013-01-07 12:09:00,49.5,49.0,30.25,SSE,147,0.0,2.0,97,0.00,,,0.00,weatherlink.com 1.10,2013-01-07 20:09:00,
2013-01-07 12:24:00,49.6,49.0,30.24,SSW,200,0.0,6.0,97,0.00,,,0.00,weatherlink.com 1.10,2013-01-07 20:24:00,
2013-01-07 12:39:00,51.0,49.0,30.23,ESE,114,2.0,4.0,94,0.00,,,0.00,weatherlink.com 1.10,2013-01-07 20:39:00,
2013-01-07 12:54:00,51.5,49.0,30.22,ESE,119,1.0,3.0,92,0.00,,,0.00,weatherlink.com 1.10,2013-01-07 20:54:00,
2013-01-07 13:09:00,52.0,50.0,30.22,ENE,68,0.0,5.0,91,0.00,,,0.00,weatherlink.com 1.10,2013-01-07 21:09:00,
2013-01-07 13:24:00,52.7,50.0,30.22,SW,236,1.0,4.0,91,0.00,,,0.00,weatherlink.com 1.10,2013-01-07 21:24:00,
2013-01-07 13:39:00,53.3,51.0,30.21,SW,223,1.0,3.0,91,0.00,,,0.00,weatherlink.com 1.10,2013-01-07 21:39:00,
2013-01-07 13:54:00,54.0,52.0,30.21,SW,223,0.0,2.0,91,0.00,,,0.00,weatherlink.com 1.10,2013-01-07 21:54:00,
2013-01-07 14:09:00,54.4,52.0,30.21,SW,223,0.0,2.0,91,0.00,,,0.00,weatherlink.com 1.10,2013-01-07 22:09:00,
2013-01-07 14:24:00,54.6,52.0,30.20,SW,223,0.0,1.0,91,0.00,,,0.00,weatherlink.com 1.10,2013-01-07 22:24:00,
2013-01-07 14:39:00,54.7,52.0,30.20,SW,223,0.0,1.0,91,0.00,,,0.00,weatherlink.com 1.10,2013-01-07 22:39:00,
2013-01-07 14:54:00,54.7,52.0,30.20,SW,223,0.0,1.0,91,0.00,,,0.00,weatherlink.com 1.10,2013-01-07 22:54:00,
2013-01-07 15:09:00,54.4,52.0,30.20,SW,223,0.0,1.0,91,0.00,,,0.00,weatherlink.com 1.10,2013-01-07 23:09:00,
2013-01-07 15:24:00,54.3,52.0,30.19,SW,223,0.0,1.0,92,0.00,,,0.00,weatherlink.com 1.10,2013-01-07 23:24:00,
2013-01-07 15:39:00,54.1,52.0,30.21,SW,223,0.0,2.0,92,0.00,,,0.00,weatherlink.com 1.10,2013-01-07 23:39:00,
2013-01-07 15:54:00,53.7,52.0,30.20,SW,223,0.0,1.0,92,0.00,,,0.00,weatherlink.com 1.10,2013-01-07 23:54:00,
2013-01-07 16:09:00,53.4,51.0,30.20,SW,223,0.0,1.0,92,0.00,,,0.00,weatherlink.com 1.10,2013-01-08 00:09:00,
2013-01-07 16:24:00,52.8,51.0,30.21,SW,223,0.0,2.0,93,0.00,,,0.00,weatherlink.com 1.10,2013-01-08 00:24:00,
2013-01-07 16:39:00,52.3,50.0,30.21,SW,223,0.0,0.0,93,0.00,,,0.00,weatherlink.com 1.10,2013-01-08 00:39:00,
2013-01-07 16:54:00,51.7,50.0,30.22,SW,223,0.0,0.0,94,0.00,,,0.00,weatherlink.com 1.10,2013-01-08 00:54:00,
2013-01-07 17:09:00,51.2,50.0,30.21,SW,223,0.0,0.0,94,0.00,,,0.00,weatherlink.com 1.10,2013-01-08 01:09:00,
2013-01-07 17:24:00,50.5,49.0,30.21,SW,223,0.0,0.0,94,0.00,,,0.00,weatherlink.com 1.10,2013-01-08 01:24:00,
2013-01-07 17:39:00,50.1,49.0,30.20,SW,223,0.0,0.0,95,0.01,,,0.01,weatherlink.com 1.10,2013-01-08 01:39:00,
2013-01-07 17:54:00,49.7,48.0,30.20,SW,223,0.0,0.0,95,0.01,,,0.01,weatherlink.com 1.10,2013-01-08 01:54:00,
2013-01-07 18:09:00,49.3,48.0,30.20,SW,223,0.0,0.0,95,0.01,,,0.01,weatherlink.com 1.10,2013-01-08 02:09:00,
2013-01-07 18:24:00,48.9,48.0,30.21,SW,223,0.0,0.0,95,0.01,,,0.01,weatherlink.com 1.10,2013-01-08 02:24:00,
2013-01-07 18:39:00,48.6,47.0,30.21,SW,223,0.0,0.0,95,0.00,,,0.01,weatherlink.com 1.10,2013-01-08 02:39:00,
2013-01-07 18:54:00,48.3,47.0,30.21,SW,223,0.0,0.0,96,0.00,,,0.01,weatherlink.com 1.10,2013-01-08 02:54:00,
2013-01-07 19:09:00,48.1,47.0,30.21,SW,223,0.0,0.0,96,0.00,,,0.01,weatherlink.com 1.10,2013-01-08 03:09:00,
2013-01-07 19:24:00,47.9,47.0,30.21,SW,223,0.0,0.0,96,0.00,,,0.01,weatherlink.com 1.10,2013-01-08 03:24:00,
2013-01-07 19:39:00,47.7,47.0,30.21,SW,223,0.0,0.0,96,0.00,,,0.01,weatherlink.com 1.10,2013-01-08 03:39:00,
2013-01-07 19:54:00,47.6,47.0,30.21,SW,223,0.0,0.0,96,0.00,,,0.01,weatherlink.com 1.10,2013-01-08 03:54:00,
2013-01-07 20:09:00,47.5,47.0,30.21,SW,223,0.0,0.0,96,0.00,,,0.01,weatherlink.com 1.10,2013-01-08 04:09:00,
2013-01-07 20:24:00,47.3,46.0,30.22,SW,223,0.0,0.0,96,0.00,,,0.01,weatherlink.com 1.10,2013-01-08 04:24:00,
2013-01-07 20:39:00,47.2,46.0,30.22,SW,223,0.0,0.0,96,0.00,,,0.01,weatherlink.com 1.10,2013-01-08 04:39:00,
2013-01-07 20:54:00,47.3,46.0,30.22,SW,223,0.0,0.0,96,0.00,,,0.01,weatherlink.com 1.10,2013-01-08 04:54:00,
2013-01-07 21:24:00,47.0,46.0,30.22,SW,223,0.0,0.0,96,0.00,,,0.01,weatherlink.com 1.10,2013-01-08 05:24:00,
2013-01-07 21:39:00,47.0,46.0,30.23,SW,223,0.0,1.0,96,0.00,,,0.01,weatherlink.com 1.10,2013-01-08 05:39:00,
2013-01-07 21:54:00,46.7,46.0,30.22,SW,223,0.0,0.0,96,0.00,,,0.01,weatherlink.com 1.10,2013-01-08 05:54:00,
2013-01-07 22:09:00,46.7,46.0,30.22,SW,223,0.0,0.0,96,0.00,,,0.01,weatherlink.com 1.10,2013-01-08 06:09:00,
2013-01-07 22:24:00,46.4,45.0,30.22,SW,223,0.0,0.0,96,0.00,,,0.01,weatherlink.com 1.10,2013-01-08 06:24:00,
2013-01-07 22:39:00,46.1,45.0,30.23,SW,223,0.0,0.0,96,0.00,,,0.01,weatherlink.com 1.10,2013-01-08 06:39:00,
2013-01-07 23:09:00,45.7,45.0,30.23,SW,223,0.0,0.0,96,0.00,,,0.01,weatherlink.com 1.10,2013-01-08 07:09:00,
2013-01-07 23:24:00,45.3,44.0,30.22,SW,223,0.0,0.0,96,0.00,,,0.01,weatherlink.com 1.10,2013-01-08 07:24:00,
2013-01-07 23:39:00,45.1,44.0,30.22,SW,223,0.0,0.0,96,0.00,,,0.01,weatherlink.com 1.10,2013-01-08 07:39:00,
2013-01-07 23:54:00,44.7,44.0,30.22,SW,223,0.0,0.0,96,0.00,,,0.01,weatherlink.com 1.10,2013-01-08 07:54:00,